Uvalde, TX

2:39 PM CDT on June 22, 2017 (GMT -0500)
Garner

Weather History for KUVA - August, 2013

Change the Weather History Date:

Monday, August 5, 2013

  Actual Average (KHDO) Record (KHDO)
Temperature  
Mean Temperature 86 °F -  
Max Temperature 102 °F 94 °F 105 °F (2011)
Min Temperature 72 °F 70 °F 66 °F (2001)
Cooling Degree Days 22    
Growing Degree Days 36 (Base 50)    
Moisture  
Dew Point 65 °F    
Average Humidity 51    
Maximum Humidity 85    
Minimum Humidity 24    
Precipitation  
Precipitation 0.00 in - - ()
Sea Level Pressure  
Sea Level Pressure 29.97 in    
Wind  
Wind Speed 10 mph (SE)    
Max Wind Speed 18 mph    
Max Gust Speed 25 mph    
Visibility 10 miles    
Events      
Averages and records for this station are not official NWS values.
T = Trace of Precipitation, MM = Missing Value Source: NWS Daily Summary

Daily Weather History Graph

Daily Weather History Graph

Search for Another Location

Airport or City:

Trip Planner

Search our weather history database for the weather conditions in past years. The results will help you decide how hot, cold, wet, or windy it might be!

Date:

Astronomy

Aug. 05, 2013 Rise Set
Actual Time 7:01 AM CDT 8:27 PM CDT
Civil Twilight 6:36 AM CDT 8:52 PM CDT
Nautical Twilight 6:06 AM CDT 9:23 PM CDT
Astronomical Twilight 5:34 AM CDT 9:54 PM CDT
Moon 5:57 AM CDT (8/5) 7:32 PM CDT (8/5)
Length of Visible Light 14h 16m
Length of Day
13h 25m
Waning Crescent, 1% of the Moon is Illuminated
Aug 5
Waning Crescent
Aug 6
New
Aug 14
First Quarter
Aug 20
Full
Aug 28
Last Quarter

Hourly Weather History & Observations

Time (CDT) Temp. Heat Index Dew Point Humidity Pressure Visibility Wind Dir Wind Speed Gust Speed Precip Events Conditions
12:15 AM 88.0 °F 91.8 °F 68.4 °F 52% 30.00 in 10.0 mi SE 11.5 mph - N/A   Clear
12:35 AM 87.3 °F 90.5 °F 67.6 °F 52% 30.01 in 10.0 mi SE 16.1 mph 20.7 mph N/A   Clear
12:55 AM 85.5 °F 87.9 °F 66.4 °F 53% 30.01 in 10.0 mi SE 12.7 mph - N/A   Clear
1:15 AM 85.5 °F 87.9 °F 66.6 °F 53% 30.01 in 10.0 mi SE 13.8 mph 18.4 mph N/A   Clear
1:35 AM 82.9 °F 84.4 °F 64.4 °F 53% 30.02 in 10.0 mi SE 10.4 mph - N/A   Clear
1:55 AM 82.2 °F 83.7 °F 63.9 °F 54% 30.02 in 10.0 mi SE 12.7 mph - N/A   Clear
2:15 AM 81.7 °F 83.2 °F 64.0 °F 55% 30.02 in 10.0 mi ESE 8.1 mph - N/A   Clear
2:35 AM 81.0 °F 82.6 °F 64.4 °F 57% 30.02 in 10.0 mi ESE 9.2 mph - N/A   Clear
2:55 AM 80.6 °F 82.3 °F 64.6 °F 58% 30.01 in 10.0 mi SE 8.1 mph - N/A   Clear
3:15 AM 80.6 °F 82.4 °F 65.3 °F 59% 30.02 in 10.0 mi ESE 8.1 mph - N/A   Clear
3:35 AM 79.2 °F - 65.3 °F 62% 30.02 in 10.0 mi ESE 6.9 mph - N/A   Clear
3:55 AM 77.9 °F - 65.3 °F 65% 30.03 in 10.0 mi East 4.6 mph - N/A   Clear
4:15 AM 77.9 °F - 66.2 °F 67% 30.03 in 10.0 mi East 5.8 mph - N/A   Clear
4:35 AM 77.9 °F - 67.1 °F 69% 30.02 in 10.0 mi East 5.8 mph - N/A   Clear
4:55 AM 75.7 °F - 66.2 °F 72% 30.02 in 10.0 mi East 5.8 mph - N/A   Clear
5:15 AM 75.4 °F - 66.7 °F 74% 30.02 in 10.0 mi ENE 8.1 mph - N/A   Clear
5:35 AM 75.4 °F - 67.3 °F 76% 30.03 in 10.0 mi ENE 5.8 mph - N/A   Clear
5:55 AM 74.5 °F - 67.3 °F 78% 30.03 in 10.0 mi ENE 5.8 mph - N/A   Clear
6:15 AM 72.9 °F - 66.2 °F 80% 30.02 in 10.0 mi ENE 5.8 mph - N/A   Clear
6:35 AM 72.9 °F - 66.7 °F 81% 30.03 in 10.0 mi East 4.6 mph - N/A   Clear
6:55 AM 72.9 °F - 67.3 °F 83% 30.03 in 10.0 mi ENE 4.6 mph - N/A   Clear
7:15 AM 72.9 °F - 68.0 °F 85% 30.03 in 10.0 mi ENE 5.8 mph - N/A   Clear
7:35 AM 72.9 °F - 68.2 °F 85% 30.04 in 10.0 mi ENE 5.8 mph - N/A   Clear
7:55 AM 74.8 °F - 69.6 °F 84% 30.04 in 10.0 mi ENE 5.8 mph - N/A   Clear
8:15 AM 76.1 °F - 70.7 °F 83% 30.04 in 10.0 mi East 8.1 mph - N/A   Clear
8:35 AM 77.9 °F - 72.5 °F 83% 30.05 in 10.0 mi East 8.1 mph - N/A   Scattered Clouds
8:55 AM 77.9 °F - 71.8 °F 81% 30.05 in 10.0 mi ESE 9.2 mph - N/A   Mostly Cloudy
9:15 AM 79.9 °F - 72.3 °F 78% 30.05 in 10.0 mi SE 11.5 mph 17.3 mph N/A   Mostly Cloudy
9:35 AM 80.6 °F 84.6 °F 71.8 °F 74% 30.05 in 10.0 mi SSE 10.4 mph 16.1 mph N/A   Mostly Cloudy
9:55 AM 80.6 °F 84.7 °F 72.0 °F 75% 30.05 in 10.0 mi SE 9.2 mph - N/A   Scattered Clouds
10:15 AM 81.7 °F 86.3 °F 71.8 °F 72% 30.05 in 10.0 mi SSE 8.1 mph - N/A   Scattered Clouds
10:35 AM 84.7 °F 91.7 °F 73.6 °F 69% 30.05 in 10.0 mi SSE 6.9 mph - N/A   Mostly Cloudy
10:55 AM 85.6 °F 93.0 °F 73.4 °F 67% 30.05 in 10.0 mi SE 8.1 mph - N/A   Scattered Clouds
11:15 AM 88.0 °F 96.0 °F 73.6 °F 62% 30.05 in 10.0 mi SSE 6.9 mph - N/A   Scattered Clouds
11:35 AM 88.7 °F 94.8 °F 71.1 °F 56% 30.04 in 10.0 mi SSE 6.9 mph - N/A   Clear
11:55 AM 89.4 °F 94.8 °F 70.3 °F 53% 30.03 in 10.0 mi South 5.8 mph - N/A   Clear
12:15 PM 92.1 °F 98.3 °F 70.7 °F 49% 30.02 in 10.0 mi SSE 8.1 mph - N/A   Clear
12:35 PM 93.2 °F 99.4 °F 70.0 °F 47% 30.01 in 10.0 mi ESE 4.6 mph - N/A   Clear
12:55 PM 93.2 °F 98.3 °F 69.1 °F 45% 30.00 in 10.0 mi SSW 11.5 mph 18.4 mph N/A   Clear
1:15 PM 94.8 °F 98.7 °F 67.3 °F 40% 29.99 in 10.0 mi South 8.1 mph 17.3 mph N/A   Clear
1:35 PM 95.7 °F 98.7 °F 65.7 °F 37% 29.98 in 10.0 mi SSE 6.9 mph 17.3 mph N/A   Clear
1:55 PM 95.5 °F 98.4 °F 65.3 °F 37% 29.98 in 10.0 mi SSW 5.8 mph 16.1 mph N/A   Clear
2:15 PM 95.7 °F 97.7 °F 63.7 °F 35% 29.96 in 10.0 mi SE 12.7 mph 17.3 mph N/A   Clear
2:35 PM 97.9 °F 99.8 °F 63.3 °F 32% 29.96 in 10.0 mi SSE 10.4 mph 18.4 mph N/A   Clear
2:55 PM 97.9 °F 98.3 °F 60.8 °F 29% 29.95 in 10.0 mi SE 9.2 mph 17.3 mph N/A   Clear
3:15 PM 99.1 °F 99.8 °F 61.0 °F 28% 29.94 in 10.0 mi SSE 16.1 mph - N/A   Clear
3:35 PM 100.2 °F 100.5 °F 59.9 °F 26% 29.93 in 10.0 mi South 10.4 mph 21.9 mph N/A   Clear
3:55 PM 100.0 °F 101.2 °F 61.0 °F 28% 29.92 in 10.0 mi South 10.4 mph 18.4 mph N/A   Clear
4:15 PM 100.9 °F 101.6 °F 59.7 °F 26% 29.91 in 10.0 mi ESE 10.4 mph 20.7 mph N/A   Clear
4:35 PM 100.8 °F 100.8 °F 59.4 °F 25% 29.91 in 10.0 mi SE 10.4 mph 19.6 mph N/A   Clear
4:55 PM 101.1 °F 101.3 °F 59.4 °F 25% 29.90 in 10.0 mi South 10.4 mph 17.3 mph N/A   Clear
5:15 PM 101.1 °F 101.9 °F 59.9 °F 26% 29.89 in 10.0 mi South 11.5 mph 17.3 mph N/A   Clear
5:35 PM 101.3 °F 101.6 °F 59.9 °F 25% 29.88 in 10.0 mi SSE 12.7 mph 17.3 mph N/A   Clear
5:55 PM 100.6 °F 100.0 °F 58.1 °F 24% 29.88 in 10.0 mi SSE 12.7 mph 19.6 mph N/A   Clear
6:15 PM 100.4 °F 100.2 °F 58.6 °F 25% 29.87 in 10.0 mi South 11.5 mph 16.1 mph N/A   Clear
6:35 PM 101.1 °F 101.3 °F 59.2 °F 25% 29.87 in 10.0 mi South 11.5 mph - N/A   Clear
6:55 PM 100.4 °F 100.2 °F 58.6 °F 25% 29.86 in 10.0 mi SE 10.4 mph - N/A   Clear
7:15 PM 100.4 °F 100.2 °F 58.6 °F 25% 29.86 in 10.0 mi SSE 8.1 mph - N/A   Clear
7:35 PM 100.4 °F 100.2 °F 59.0 °F 25% 29.86 in 10.0 mi SSE 13.8 mph - N/A   Clear
7:55 PM 99.1 °F 98.8 °F 58.3 °F 26% 29.86 in 10.0 mi SE 12.7 mph 16.1 mph N/A   Clear
8:15 PM 97.9 °F 97.4 °F 58.3 °F 27% 29.86 in 10.0 mi SE 8.1 mph - N/A   Clear
8:35 PM 97.9 °F 97.4 °F 58.6 °F 27% 29.86 in 10.0 mi SE 9.2 mph - N/A   Clear
8:55 PM 96.1 °F 95.2 °F 58.1 °F 28% 29.86 in 10.0 mi SE 8.1 mph - N/A   Clear
9:15 PM 95.5 °F 94.8 °F 58.5 °F 29% 29.87 in 10.0 mi SE 6.9 mph - N/A   Clear
9:35 PM 95.5 °F 95.2 °F 59.2 °F 30% 29.88 in 10.0 mi SE 6.9 mph - N/A   Clear
9:55 PM 94.6 °F 93.9 °F 59.2 °F 30% 29.88 in 10.0 mi SE 9.2 mph - N/A   Clear
10:15 PM 93.6 °F 94.2 °F 61.7 °F 35% 29.88 in 10.0 mi ESE 15.0 mph 21.9 mph N/A   Clear
10:35 PM 93.2 °F 99.4 °F 70.0 °F 47% 29.90 in 10.0 mi ESE 15.0 mph 18.4 mph N/A   Clear
10:55 PM 93.2 °F 101.7 °F 72.5 °F 51% 29.91 in 10.0 mi ESE 17.3 mph 25.3 mph N/A   Clear
11:15 PM 89.8 °F 96.0 °F 71.1 °F 54% 29.91 in 10.0 mi SE 18.4 mph 24.2 mph N/A   Clear
11:35 PM 88.0 °F 92.9 °F 70.2 °F 55% 29.91 in 10.0 mi ESE 17.3 mph 25.3 mph N/A   Clear
11:55 PM 88.0 °F 93.8 °F 70.9 °F 57% 29.92 in 10.0 mi ESE 16.1 mph - N/A   Clear